Windom, MN

10:14 AM CDT on April 24, 2017 (GMT -0500)
Windom Municipal

Weather History for KMWM - May, 2014

Change the Weather History Date:

Saturday, May 10, 2014

  Actual Average Record
Temperature  
Mean Temperature 54 °F -  
Max Temperature 71 °F 69 °F 92 °F (1987)
Min Temperature 37 °F 45 °F 27 °F (1968)
Degree Days  
Heating Degree Days 11    
Growing Degree Days 4 (Base 50)    
Moisture  
Dew Point 44 °F    
Average Humidity 68    
Maximum Humidity 100    
Minimum Humidity 40    
Precipitation  
Precipitation 0.00 in - - ()
Sea Level Pressure  
Sea Level Pressure 29.79 in    
Wind  
Wind Speed 7 mph (SE)    
Max Wind Speed 24 mph    
Max Gust Speed 33 mph    
Visibility 10 miles    
Events Rain , Thunderstorm    
Averages and records for this station are not official NWS values.
T = Trace of Precipitation, MM = Missing Value Source: NWS Daily Summary

Daily Weather History Graph

Daily Weather History Graph

Search for Another Location

Airport or City:

Trip Planner

Search our weather history database for the weather conditions in past years. The results will help you decide how hot, cold, wet, or windy it might be!

Date:

Astronomy

May. 10, 2014 Rise Set
Actual Time 6:00 AM CDT 8:34 PM CDT
Civil Twilight 5:27 AM CDT 9:06 PM CDT
Nautical Twilight 4:46 AM CDT 9:48 PM CDT
Astronomical Twilight 4:00 AM CDT 10:34 PM CDT
Moon 4:22 PM CDT (5/10) 3:43 AM CDT (5/10)
Length of Visible Light 15h 39m
Length of Day
14h 33m
Waxing Gibbous, 82% of the Moon is Illuminated
May 10
Waxing Gibbous
May 14
Full
May 21
Last Quarter
May 28
New
Jun 5
First Quarter

Hourly Weather History & Observations

Time (CDT) Temp. Windchill Dew Point Humidity Pressure Visibility Wind Dir Wind Speed Gust Speed Precip Events Conditions
12:13 AM 44.6 °F - 39.2 °F 81% 29.83 in 10.0 mi Calm Calm - N/A   Clear
12:32 AM 42.8 °F - 39.2 °F 87% 29.83 in 10.0 mi Calm Calm - N/A   Clear
12:52 AM 41.0 °F - 39.2 °F 93% 29.83 in 7.0 mi Calm Calm - N/A   Clear
1:13 AM 41.0 °F - 37.4 °F 87% 29.84 in 10.0 mi Calm Calm - N/A   Clear
1:32 AM 42.8 °F - 39.2 °F 87% 29.84 in 10.0 mi Calm Calm - N/A   Clear
1:52 AM 42.8 °F - 41.0 °F 93% 29.85 in 10.0 mi Calm Calm - N/A   Clear
2:12 AM 39.2 °F - 37.4 °F 93% 29.84 in 7.0 mi Calm Calm - N/A   Clear
2:32 AM 39.2 °F - 37.4 °F 93% 29.85 in 5.0 mi Calm Calm - N/A   Clear
2:52 AM 37.4 °F - 37.4 °F 100% 29.84 in 10.0 mi Calm Calm - N/A   Clear
3:13 AM 37.4 °F - 37.4 °F 100% 29.84 in 7.0 mi Calm Calm - N/A   Scattered Clouds
3:32 AM 39.2 °F - 39.2 °F 100% 29.85 in 10.0 mi Calm Calm - N/A   Scattered Clouds
3:52 AM 42.8 °F - 39.2 °F 87% 29.84 in 10.0 mi Calm Calm - N/A   Scattered Clouds
4:12 AM 42.8 °F - 37.4 °F 81% 29.84 in 10.0 mi Calm Calm - N/A   Scattered Clouds
4:32 AM 42.8 °F - 37.4 °F 81% 29.84 in 10.0 mi Calm Calm - N/A   Scattered Clouds
4:53 AM 42.8 °F - 37.4 °F 81% 29.84 in 10.0 mi Calm Calm - N/A   Mostly Cloudy
5:12 AM 44.6 °F - 39.2 °F 81% 29.84 in 10.0 mi Calm Calm - N/A   Mostly Cloudy
5:32 AM 44.6 °F 43.1 °F 39.2 °F 81% 29.84 in 10.0 mi ESE 3.5 mph - N/A   Scattered Clouds
6:12 AM 44.6 °F 40.7 °F 39.2 °F 81% 29.83 in 10.0 mi ESE 6.9 mph - N/A   Scattered Clouds
6:32 AM 44.6 °F 41.4 °F 39.2 °F 81% 29.83 in 10.0 mi ESE 5.8 mph - N/A   Scattered Clouds
6:53 AM 44.6 °F 40.2 °F 39.2 °F 81% 29.83 in 10.0 mi ESE 8.1 mph - N/A   Clear
7:12 AM 46.4 °F 42.9 °F 42.8 °F 87% 29.83 in 10.0 mi ESE 6.9 mph - N/A   Clear
7:32 AM 48.2 °F - 42.8 °F 82% 29.83 in 10.0 mi SE 8.1 mph - N/A   Clear
7:53 AM 51.8 °F - 42.8 °F 71% 29.82 in 10.0 mi ESE 9.2 mph - N/A   Scattered Clouds
8:12 AM 51.8 °F - 42.8 °F 71% 29.82 in 10.0 mi ESE 9.2 mph - N/A   Clear
8:32 AM 53.6 °F - 42.8 °F 67% 29.81 in 10.0 mi ESE 11.5 mph - N/A   Clear
8:52 AM 55.4 °F - 42.8 °F 63% 29.81 in 10.0 mi ESE 13.8 mph 18.4 mph N/A   Clear
9:12 AM 55.4 °F - 41.0 °F 58% 29.80 in 10.0 mi ESE 16.1 mph 21.9 mph N/A   Clear
9:33 AM 59.0 °F - 41.0 °F 51% 29.80 in 10.0 mi ESE 18.4 mph - N/A   Clear
9:52 AM 60.8 °F - 41.0 °F 48% 29.79 in 10.0 mi ESE 18.4 mph 21.9 mph N/A   Clear
10:12 AM 60.8 °F - 39.2 °F 45% 29.79 in 10.0 mi ESE 21.9 mph 26.5 mph N/A   Clear
10:33 AM 62.6 °F - 39.2 °F 42% 29.79 in 10.0 mi ESE 20.7 mph 26.5 mph N/A   Clear
10:53 AM 62.6 °F - 39.2 °F 42% 29.79 in 10.0 mi SE 16.1 mph - N/A   Clear
11:12 AM 62.6 °F - 41.0 °F 45% 29.79 in 10.0 mi ESE 18.4 mph 24.2 mph N/A   Clear
11:32 AM 64.4 °F - 42.8 °F 45% 29.78 in 10.0 mi ESE 15.0 mph - N/A   Scattered Clouds
11:52 AM 64.4 °F - 44.6 °F 49% 29.77 in 10.0 mi SE 13.8 mph 19.6 mph N/A   Clear
12:12 PM 66.2 °F - 44.6 °F 46% 29.76 in 10.0 mi SE 18.4 mph 21.9 mph N/A   Clear
12:33 PM 66.2 °F - 44.6 °F 46% 29.75 in 10.0 mi SE 21.9 mph 28.8 mph N/A   Clear
12:52 PM 69.8 °F - 44.6 °F 40% 29.75 in 10.0 mi SSE 19.6 mph 27.6 mph N/A   Clear
1:12 PM 68.0 °F - 44.6 °F 43% 29.75 in 10.0 mi South 23.0 mph 31.1 mph N/A   Scattered Clouds
1:33 PM 68.0 °F - 46.4 °F 46% 29.75 in 10.0 mi SSE 24.2 mph 31.1 mph N/A   Scattered Clouds
1:52 PM 64.4 °F - 46.4 °F 52% 29.76 in 10.0 mi SSE 20.7 mph 27.6 mph N/A Rain Light Rain
2:12 PM 64.4 °F - 51.8 °F 64% 29.74 in 10.0 mi SSE 24.2 mph - N/A   Scattered Clouds
2:33 PM 69.8 °F - 46.4 °F 43% 29.73 in 10.0 mi SSE 23.0 mph 33.4 mph N/A   Clear
2:52 PM 68.0 °F - 46.4 °F 46% 29.72 in 10.0 mi SSE 23.0 mph 31.1 mph N/A Thunderstorm Clear
3:12 PM 68.0 °F - 48.2 °F 49% 29.73 in 10.0 mi SE 23.0 mph 29.9 mph N/A   Clear
3:33 PM 69.8 °F - 48.2 °F 46% 29.73 in 10.0 mi SSE 21.9 mph 31.1 mph N/A   Clear
3:52 PM 69.8 °F - 50.0 °F 49% 29.72 in 10.0 mi SE 20.7 mph 27.6 mph N/A   Clear
4:12 PM 71.6 °F - 48.2 °F 43% 29.71 in 10.0 mi SE 21.9 mph 28.8 mph N/A   Clear
4:33 PM 69.8 °F - 46.4 °F 43% 29.69 in 10.0 mi SE 17.3 mph 28.8 mph N/A   Clear
4:52 PM 69.8 °F - 46.4 °F 43% 29.68 in 10.0 mi ESE 20.7 mph 27.6 mph N/A   Clear
5:12 PM 68.0 °F - 48.2 °F 49% 29.69 in 10.0 mi SE 20.7 mph - N/A Thunderstorm Clear
5:33 PM 66.2 °F - 48.2 °F 52% - 10.0 mi ESE 8.1 mph 26.5 mph N/A Rain , Thunderstorm Light Thunderstorms and Rain
5:52 PM 64.4 °F - 51.8 °F 64% 29.73 in 10.0 mi SE 12.7 mph - N/A Rain , Thunderstorm Light Thunderstorms and Rain
6:12 PM 60.8 °F - 51.8 °F 72% 29.73 in 10.0 mi East 6.9 mph 25.3 mph N/A Rain , Thunderstorm Light Thunderstorms and Rain
6:33 PM 60.8 °F - 53.6 °F 77% 29.72 in 10.0 mi East 11.5 mph - N/A Thunderstorm Thunderstorm
6:52 PM 60.8 °F - 53.6 °F 77% 29.70 in 5.0 mi East 13.8 mph - N/A Rain , Thunderstorm Heavy Thunderstorms and Rain
7:12 PM 60.8 °F - 53.6 °F 77% 29.71 in 10.0 mi East 10.4 mph - N/A Thunderstorm Mostly Cloudy
7:33 PM 60.8 °F - 53.6 °F 77% 29.72 in 10.0 mi East 8.1 mph - N/A   Scattered Clouds
7:52 PM 60.8 °F - 53.6 °F 77% 29.74 in 10.0 mi ESE 10.4 mph - N/A   Mostly Cloudy
8:12 PM 60.8 °F - 50.0 °F 68% 29.76 in 10.0 mi SE 10.4 mph 13.8 mph N/A   Scattered Clouds
8:33 PM 59.0 °F - 51.8 °F 77% 29.77 in 10.0 mi SSE 4.6 mph - N/A   Clear
8:52 PM 57.2 °F - 51.8 °F 82% 29.78 in 10.0 mi South 3.5 mph - N/A   Clear
9:12 PM 57.2 °F - 51.8 °F 82% 29.78 in 10.0 mi SSE 9.2 mph - N/A   Clear
9:32 PM 57.2 °F - 50.0 °F 77% 29.79 in 10.0 mi SE 6.9 mph - N/A   Clear
10:13 PM 57.2 °F - 48.2 °F 72% 29.82 in 10.0 mi SE 10.4 mph - N/A   Clear
10:32 PM 57.2 °F - 48.2 °F 72% 29.83 in 10.0 mi SE 9.2 mph - N/A   Clear
10:52 PM 55.4 °F - 48.2 °F 77% 29.84 in 10.0 mi SSE 6.9 mph - N/A   Clear
11:13 PM 55.4 °F - 48.2 °F 77% 29.83 in 10.0 mi SSE 5.8 mph - N/A   Clear
11:52 PM 53.6 °F - 48.2 °F 82% 29.83 in 10.0 mi SSE 6.9 mph - N/A   Clear